Flag for Jamaica Weather past 2 weeks in May Pen, Jamaica

Now
81 °F

Passing clouds.


Feels Like: 84 °F
Forecast: 71 / 87 °F
Wind: 13 mph from Southeast

Location: Kingston / Norman Manley

Current Time: Feb 26, 2015 at 11:09:46 PM

Latest Report: Feb 26, 2015 at 10:00 PM


Visibility: N/A

Pressure: 29.98 "Hg

Humidity: 70%

Dew point: 70 °F

Location of May PenLocation

Historic Weather in May Pen — Graph

°F

May Pen temperature yesterday

Maximum temperature yesterday: 86 °F (at 11:00 AM)
Minimum temperature yesterday: 77 °F (at 2:00 AM)
Average temperature yesterday: 81 °F

Past Weeks' High & Low Weather Summary

 TemperatureHumidityPressure
High90 °F (Feb 21, 2:00 PM)89% (Feb 19, 6:00 PM)30.07 "Hg (Feb 19, 6:00 PM)
Low72 °F (Feb 13, 7:00 AM)49% (Feb 21, 2:00 PM)29.89 "Hg (Feb 12, 2:00 AM)
Average80 °F71%29.97 "Hg
* Reported Feb 11 10:00 PM — Feb 26 10:00 PM, May Pen, Weather by CustomWeather, © 2015

Note: Actual official high and low records may vary slightly from our data, if they occured in-between our weather recording intervals... More about our weather records

Advertising

May Pen weather history for previous 24 hours

 ConditionsComfort  
Time TempWeatherWind HumidityBarometerVisibility
10:00 PM
Thu, Feb 26
81 °FPassing clouds.13 mph70%29.98 "HgN/A
9:00 PM81 °FPassing clouds.13 mph74%29.98 "HgN/A
8:00 PM81 °FPassing clouds.16 mph74%29.95 "HgN/A
7:00 PM82 °FPassing clouds.17 mph66%29.92 "HgN/A
6:00 PM82 °FPassing clouds.20 mph70%29.92 "HgN/A
5:00 PM84 °FPassing clouds.22 mph66%29.92 "HgN/A
4:00 PM84 °FPassing clouds.21 mph70%29.89 "HgN/A
3:00 PM86 °FPassing clouds.23 mph66%29.89 "HgN/A
2:00 PM86 °FPassing clouds.23 mph66%29.92 "HgN/A
1:00 PM88 °FPassing clouds.23 mph55%29.95 "HgN/A
12:00 PM86 °FPassing clouds.21 mph62%29.95 "HgN/A
11:00 AM84 °FPassing clouds.22 mph66%29.98 "HgN/A
10:00 AM86 °FPassing clouds.23 mph62%29.98 "HgN/A
9:00 AM82 °FPassing clouds.18 mph70%29.98 "HgN/A
8:00 AM81 °FPassing clouds.15 mph74%29.95 "HgN/A
7:00 AM81 °FPassing clouds.17 mph70%29.95 "HgN/A
6:00 AM79 °FPassing clouds.17 mph74%29.92 "HgN/A
5:00 AM79 °FPassing clouds.17 mph74%29.89 "HgN/A
4:00 AM81 °FPassing clouds.15 mph70%29.89 "HgN/A
3:00 AM79 °FPassing clouds.17 mph74%29.89 "HgN/A
2:00 AM81 °FPassing clouds.16 mph74%29.89 "HgN/A
1:00 AM81 °FPassing clouds.15 mph79%29.92 "HgN/A
12:00 AM81 °FPassing clouds.N/A79%29.95 "HgN/A
11:00 PM
Wed, Feb 25
81 °FPassing clouds.14 mph74%29.95 "HgN/A
Weather by CustomWeather, © 2015

See weather overviewHow to use our weather pages